Tracking 35334 objects as of 13-Sep-2026
HD Live streaming from Space Station
objects crossing your sky now

THORAD AGENA D DEB


THORAD AGENA D DEB is no longer on orbit


NORAD ID: 4944
Int'l Code: 1970-025GE
Launch date: April 8, 1970
Source: United States (US)
Launch site: AIR FORCE WESTERN TEST RANGE (AFWTR)
Decay date: 2001-12-31

Note: This is SATELLITE DEBRIS
Your satellite tracking list
Your tracking list is empty




NASA's NSSDC Master Catalog

Two Line Element Set (TLE):
1  4944U 70025GE  01365.29424815 +.59868626 +39453-5 +24931-1 0  9994
2  4944 100.0595 279.4393 0017796 141.1070 219.1495 16.22650391641258
Source of the keplerian elements: AFSPC